Regional Weather Roundup
Issued by NWS

Home | Current Version | Previous Version | Graphics & Text | Print | Product List | Glossary On
Versions: 1 2 3 4 5 6 7 8 9 10 11 12 13 14 15 16 17 18 19 20 21 22 23 24 25 26 27 28 29 30 31 32 33 34 35 36 37 38 39 40 41 42 43 44 45 46 47 48 49 50
000
ASUS43 KLMK 050502
RWRKY
KENTUCKY REGIONAL WEATHER ROUNDUP
NATIONAL WEATHER SERVICE LOUISVILLE KY
100 AM EDT WED AUG 05 2015

NOTE "FAIR" INDICATES FEW OR NO CLOUDS BELOW 12,000 FEET
WITH NO SIGNIFICANT WEATHER AND/OR OBSTRUCTIONS TO VISIBILITY.

KYZ001>023-026-027-061>063-070>075-050600-
WESTERN AND SOUTH CENTRAL KENTUCKY

CITY           SKY/WX    TMP DP  RH WIND       PRES   REMARKS
PADUCAH        CLOUDY    75  70  84 SE5       29.99S
HENDERSON      CLOUDY    70  66  88 CALM      30.01R
OWENSBORO      CLOUDY    71  69  93 CALM      30.02S
HOPKINSVILLE   CLOUDY    74  67  76 E2        30.02S
BOWLING GREEN  CLOUDY    74  68  81 NE5       30.03S
GLASGOW        MOCLDY    69  69 100 CALM      30.04S
$$

KYZ024-025-028>034-038-045-046-053-050600-
NORTH CENTRAL KENTUCKY

CITY           SKY/WX    TMP DP  RH WIND       PRES   REMARKS
LOUISVILLE/SDF CLOUDY    71  67  87 SW3       30.01F
LOUISVILLE/LOU CLOUDY    70  67  90 CALM      30.03R
FORT KNOX      CLOUDY    68  67  95 CALM      30.02S
$$

KYZ035>037-039>044-047>052-055>060-089>105-050600-
NORTHEAST KENTUCKY

CITY           SKY/WX    TMP DP  RH WIND       PRES   REMARKS
LEXINGTON      CLOUDY    68  66  93 S3        30.04R
COVINGTON      CLOUDY    73  60  63 N3        30.01F
FRANKFORT      MOCLDY    67  65  93 CALM      30.02S
$$

KYZ054-064>069-076>088-106>120-050600-
SOUTHEAST KENTUCKY

CITY           SKY/WX    TMP DP  RH WIND       PRES   REMARKS
JACKSON        FOG       68  67  96 CALM      30.06F VSB 1/4
LONDON         MOCLDY    70  65  84 SE5       30.05F
SOMERSET       NOT AVBL
MIDDLESBORO    MOCLDY    70  68  94 CALM      30.11F
MONTICELLO     PTCLDY    71  69  93 CALM      30.08F
$$



USA.gov is the U.S. government's official web portal to all federal, state and local government web resources and services.